Location: 22
(39.7117°N, 89.5929°W)
Time: 10:18:24
(UTC-05:00)

Transit 2A - Pass Details

Date: 12 August 2024
Orbit: 590 x 961 km, 66.7° (Epoch: 13 September)

Event Time Altitude Azimuth Distance (km) Brightness Sun altitude
Rises 04:09:02 0° 224° (SW) 3,226 - -20.5°
Reaches altitude 10° 04:11:24 10° 230° (SW) 2,360 - -20.2°
Exits shadow 04:14:41 34° 254° (WSW) 1,337 6.7 -19.7°
Maximum altitude 04:16:41 49° 305° (NW) 1,093 6.6 -19.4°
Drops below altitude 10° 04:22:33 10° 20° (NNE) 2,601 9.6 -18.5°
Sets 04:25:16 0° 26° (NNE) 3,586 10.6 -18.1°
